Home   Weather   Lens   Past weeks

Flag for France Past Weather in Lens, Nord-Pas-de-Calais, France — Yesterday and Last 2 Weeks

Now
46 °F

Overcast.


Feels Like: 44 °F
Forecast: 44 / 53 °F
Wind: 6 mph from Southwest

Location: Lille Airport

Current Time: Feb 20, 2017 at 12:19:21 am

Latest Report: Feb 19, 2017 at 11:30 pm


Visibility: N/A

Pressure: 30.18 "Hg

Humidity: 87%

Dew Point: 43 °F

Location of LensLocation

Past Weather in Lens — Graph

°F

Lens Temperature Yesterday

Maximum temperature yesterday: 50 °F (at 12:30 pm)
Minimum temperature yesterday: 36 °F (at 8:00 am)
Average temperature yesterday: 44 °F

High & Low Weather Summary for the Past Weeks

 TemperatureHumidityPressure
High59 °F (Feb 15, 2:30 pm)100% (Feb 4, 11:30 pm)30.48 "Hg (Feb 4, 11:30 pm)
Low28 °F (Feb 10, 6:00 am)55% (Feb 14, 1:30 pm)29.47 "Hg (Feb 5, 6:30 am)
Average41 °F88%30.17 "Hg
* Reported Feb 4 11:00 pm — Feb 19 11:00 pm, Lens, Weather by CustomWeather, © 2017

Note: Actual official high and low records may vary slightly from our data, if they occured in-between our weather recording intervals... More about our weather records

Advertising

Lens Weather History for the Previous 24 Hours

Scroll right to see more
 ConditionsComfort  
Time TempWeatherWind HumidityBarometerVisibility
11:00 pm
Sun, Feb 19
46 °FOvercast.7 mph87%30.18 "HgN/A
10:30 pm46 °FMostly cloudy.7 mph87%30.21 "HgN/A
10:00 pm46 °FOvercast.8 mph87%30.21 "HgN/A
9:30 pm46 °FMostly cloudy.7 mph87%30.21 "HgN/A
9:00 pm46 °FOvercast.8 mph87%30.21 "HgN/A
8:30 pm46 °FPassing clouds.7 mph87%30.21 "HgN/A
8:00 pm46 °FPassing clouds.7 mph82%30.21 "HgN/A
7:30 pm46 °FPassing clouds.9 mph87%30.18 "HgN/A
7:00 pm46 °FPassing clouds.10 mph87%30.18 "HgN/A
6:30 pm48 °FPassing clouds.9 mph82%30.18 "HgN/A
6:00 pm50 °FMostly cloudy.10 mph82%30.18 "HgN/A
5:30 pm50 °FMore clouds than sun.10 mph82%30.18 "HgN/A
5:00 pm50 °FMore clouds than sun.13 mph76%30.18 "HgN/A
4:30 pm50 °FOvercast.12 mph76%30.18 "HgN/A
4:00 pm50 °FMostly cloudy.13 mph76%30.18 "HgN/A
3:30 pm50 °FMostly cloudy.12 mph76%30.18 "HgN/A
3:00 pm50 °FMore clouds than sun.10 mph82%30.18 "HgN/A
2:30 pm50 °FCloudy.13 mph82%30.18 "HgN/A
2:00 pm50 °FMostly cloudy.14 mph82%30.18 "HgN/A
1:30 pm50 °FOvercast.12 mph82%30.18 "HgN/A
1:00 pm48 °FOvercast.12 mph82%30.21 "HgN/A
12:30 pm50 °FOvercast.10 mph76%30.21 "HgN/A
12:00 pm48 °FMore clouds than sun.12 mph82%30.21 "HgN/A
11:30 am48 °FBroken clouds.9 mph76%30.21 "Hg6 mi
11:00 am45 °FClear.10 mph87%30.21 "Hg4 mi
10:30 am43 °FClear.9 mph87%30.21 "Hg4 mi
10:00 am39 °FClear.5 mph100%30.21 "Hg5 mi
9:30 am37 °FPassing clouds.5 mph100%30.21 "Hg4 mi
9:00 am36 °FFog.7 mph100%30.21 "Hg2 mi
8:30 am36 °FDense fog.7 mph100%30.21 "Hg1 mi
8:00 am36 °FFog.7 mph100%30.21 "Hg1 mi
7:30 am37 °FDense fog.8 mph100%30.21 "Hg1 mi
7:00 am37 °FFog.6 mph100%30.21 "Hg1 mi
6:30 am37 °FFog.6 mph100%30.21 "Hg2 mi
6:00 am37 °FFog.6 mph100%30.21 "Hg1 mi
5:30 am37 °FFog.7 mph100%30.24 "Hg1 mi
5:00 am37 °FFog.8 mph100%30.21 "Hg1 mi
4:30 am37 °FDense fog.8 mph100%30.21 "Hg1 mi
4:00 am39 °FFog.8 mph100%30.21 "Hg1 mi
2:30 am39 °FFog.8 mph100%30.24 "Hg1 mi
2:00 am39 °FFog.7 mph100%30.27 "Hg1 mi
1:30 am37 °FFog.6 mph100%30.27 "Hg1 mi
1:00 am37 °FFog.7 mph100%30.27 "Hg1 mi
12:30 am37 °FFog.6 mph100%30.27 "Hg1 mi
12:00 am37 °FFog.5 mph100%30.27 "Hg1 mi
Weather by CustomWeather, © 2017

See weather overviewHow to use our weather pages